CW7400 Weather Reports


time (UTC)temp
C
wind
direction
speed
KPH
gust
KPH
rain 1hr
cm
rain 24hr
cm
rain mn
cm
humidity
%
barometer
mb
20260906124535 23 0 0.0 16.1 0.00 0.20 0.00 90 1013.5
20260906123613 23 0 0.0 6.4 0.00 0.20 0.00 90 1013.4
20260906122714 23 0 0.0 0.0 0.00 0.20 0.00 90 1013.4
20260906121814 23 0 0.0 6.4 0.00 0.20 0.00 91 1013.4
20260906120914 23 0 0.0 0.0 0.00 0.20 0.00 91 1013.4
20260906120013 23 0 0.0 0.0 0.00 0.20 0.00 91 1013.3
20260906115413 23 0 0.0 3.2 0.00 0.20 0.00 91 1013.3
20260906114513 23 0 0.0 3.2 0.00 0.20 0.00 91 1013.1
20260906113614 23 0 0.0 6.4 0.00 0.20 0.00 92 1013.1
20260906112713 23 0 0.0 9.7 0.00 0.20 0.00 92 1013.0
20260906111813 23 58 4.8 16.1 0.00 0.20 0.00 93 1012.9
20260906110914 23 0 0.0 6.4 0.00 0.20 0.00 93 1012.8
20260906110014 23 0 0.0 3.2 0.00 0.20 0.00 93 1012.6
20260906105414 23 0 0.0 6.4 0.00 0.20 0.00 93 1012.7
20260906104513 22 0 0.0 3.2 0.00 0.20 0.00 93 1012.6
20260906103614 22 0 0.0 6.4 0.00 0.20 0.00 93 1012.4
20260906102713 22 0 0.0 3.2 0.00 0.20 0.00 94 1012.3
20260906101813 22 0 0.0 3.2 0.00 0.20 0.00 94 1012.3
20260906100914 22 0 0.0 6.4 0.00 0.20 0.00 94 1012.3
20260906100013 22 0 0.0 6.4 0.00 0.20 0.00 94 1012.1
20260906095413 22 0 0.0 6.4 0.00 0.20 0.00 94 1012.0
20260906094513 22 0 0.0 3.2 0.00 0.20 0.00 94 1011.7
20260906093635 22 0 0.0 6.4 0.00 0.20 0.00 94 1011.7
20260906092713 22 0 0.0 12.9 0.00 0.20 0.00 94 1011.5
20260906091813 22 0 0.0 6.4 0.00 0.20 0.00 95 1011.6
20260906090913 22 0 0.0 3.2 0.00 0.20 0.00 95 1011.4
20260906090013 22 0 0.0 3.2 0.00 0.20 0.00 95 1011.4
20260906085413 22 0 0.0 3.2 0.00 0.20 0.00 95 1011.4
20260906084513 22 0 0.0 3.2 0.00 0.20 0.00 95 1011.2
20260906083613 22 0 0.0 9.7 0.00 0.20 0.00 95 1011.2
20260906082713 22 0 0.0 3.2 0.00 0.20 0.00 95 1011.3
20260906081813 22 0 0.0 3.2 0.00 0.20 0.00 96 1011.2
20260906080914 22 0 0.0 6.4 0.00 0.20 0.00 96 1011.1
20260906080013 22 0 0.0 0.0 0.00 0.20 0.00 96 1011.1
20260906075413 22 0 0.0 0.0 0.00 0.20 0.00 95 1010.9
20260906074513 22 0 0.0 0.0 0.00 0.20 0.00 95 1010.8
20260906073613 22 0 0.0 0.0 0.00 0.20 0.00 95 1010.7
20260906072713 22 0 0.0 0.0 0.00 0.20 0.00 95 1010.6
20260906071813 22 0 0.0 0.0 0.00 0.20 0.00 95 1010.6
20260906070913 22 0 0.0 0.0 0.00 0.20 0.00 95 1010.8
20260906070034 22 0 0.0 0.0 0.00 0.20 0.00 95 1010.8
20260906065413 22 0 0.0 0.0 0.00 0.20 0.00 95 1010.8
20260906064513 22 0 0.0 0.0 0.00 0.20 0.00 95 1010.9
20260906063634 22 0 0.0 0.0 0.00 0.20 0.00 95 1010.9
20260906062713 22 0 0.0 0.0 0.00 0.20 0.00 95 1010.9
20260906061813 22 0 0.0 0.0 0.00 0.20 0.00 95 1011.0
20260906060913 22 0 0.0 0.0 0.00 0.20 0.00 94 1011.0
20260906060013 22 0 0.0 0.0 0.00 0.20 0.00 94 1011.1
20260906055413 22 0 0.0 0.0 0.00 0.20 0.00 94 1011.2
20260906054513 22 0 0.0 0.0 0.00 0.20 0.00 94 1011.5
20260906053613 22 0 0.0 0.0 0.00 0.20 0.00 94 1011.5
20260906052713 22 0 0.0 0.0 0.00 0.20 0.00 94 1011.5
20260906051813 23 0 0.0 0.0 0.00 0.20 0.00 94 1011.6
20260906050913 23 0 0.0 0.0 0.00 0.20 0.00 94 1011.7
20260906050013 23 0 0.0 0.0 0.00 0.20 0.00 94 1011.8
20260906045434 23 0 0.0 0.0 0.00 0.20 0.00 94 1011.7
20260906044534 23 0 0.0 0.0 0.00 0.20 0.00 94 1011.9
20260906043613 23 0 0.0 0.0 0.00 0.20 0.00 94 1011.9
20260906042734 23 0 0.0 0.0 0.00 0.20 0.00 94 1011.9
20260906041813 23 0 0.0 0.0 0.00 0.20 0.00 94 1012.0
20260906040934 23 0 0.0 0.0 0.00 0.20 0.00 94 1012.0
20260906040013 23 0 0.0 0.0 0.00 0.20 0.00 93 1012.0
20260906035413 23 0 0.0 0.0 0.00 0.20 0.20 93 1012.0
20260906034513 23 0 0.0 0.0 0.00 0.20 0.20 93 1012.0
20260906033613 23 0 0.0 0.0 0.00 0.20 0.20 93 1012.0
20260906032713 23 0 0.0 0.0 0.00 0.20 0.20 93 1012.0
20260906031813 23 0 0.0 0.0 0.00 0.20 0.20 93 1011.8
20260906030934 23 0 0.0 3.2 0.00 0.20 0.20 94 1011.9
20260906030013 23 0 0.0 3.2 0.00 0.20 0.20 94 1011.8
20260906025413 23 0 0.0 0.0 0.00 0.20 0.20 94 1011.8
20260906024513 23 0 0.0 0.0 0.00 0.20 0.20 94 1011.7
20260906023613 23 0 0.0 0.0 0.00 0.20 0.20 94 1011.8
20260906022734 23 0 0.0 0.0 0.00 0.20 0.20 94 1011.7
20260906021813 23 0 0.0 0.0 0.00 0.20 0.20 94 1011.7
20260906020913 23 0 0.0 3.2 0.00 0.20 0.20 94 1011.6
20260906020013 23 0 0.0 3.2 0.00 0.20 0.20 94 1011.7
20260906015413 23 0 0.0 0.0 0.00 0.20 0.20 94 1011.7
20260906014513 23 0 0.0 0.0 0.00 0.20 0.20 94 1011.7
20260906013613 23 0 0.0 0.0 0.00 0.20 0.20 94 1011.6
20260906012713 23 0 0.0 0.0 0.00 0.20 0.20 94 1011.5
20260906011813 23 0 0.0 0.0 0.00 0.20 0.20 94 1011.5
20260906010913 23 0 0.0 0.0 0.00 0.20 0.20 94 1011.5
20260906010034 23 0 0.0 0.0 0.00 0.20 0.20 93 1011.4
20260906005434 24 0 0.0 0.0 0.00 0.20 0.20 93 1011.3
20260906004534 24 0 0.0 0.0 0.00 0.20 0.20 93 1011.3
20260906003613 24 0 0.0 0.0 0.00 0.20 0.20 93 1011.2
20260906002734 24 0 0.0 0.0 0.00 0.20 0.20 93 1011.2
20260906001813 24 0 0.0 0.0 0.00 0.20 0.20 92 1011.0
20260906000913 24 0 0.0 0.0 0.00 0.20 0.20 92 1011.0
20260906000013 24 0 0.0 0.0 0.00 0.20 0.20 92 1010.9
20260905235413 24 0 0.0 0.0 0.00 0.20 0.20 92 1010.7
20260905234513 25 0 0.0 0.0 0.00 0.20 0.20 92 1010.7
20260905233613 25 0 0.0 0.0 0.00 0.20 0.20 92 1010.4
20260905232713 25 0 0.0 0.0 0.00 0.20 0.20 91 1010.3
20260905231834 25 0 0.0 0.0 0.00 0.20 0.20 91 1010.2
20260905230913 25 0 0.0 0.0 0.00 0.20 0.20 91 1009.9
20260905230013 25 0 0.0 0.0 0.00 0.20 0.20 91 1009.7
20260905225413 25 0 0.0 3.2 0.00 0.20 0.20 91 1009.7
20260905224513 25 0 0.0 0.0 0.00 0.20 0.20 91 1009.7
20260905223613 25 0 0.0 0.0 0.00 0.20 0.20 91 1009.6
20260905222713 25 0 0.0 0.0 0.00 0.20 0.20 92 1009.7
20260905221813 24 0 0.0 0.0 0.00 0.20 0.20 92 1010.1
20260905220913 24 0 0.0 0.0 0.00 0.20 0.20 92 1010.4
20260905220013 24 0 0.0 0.0 0.00 0.20 0.20 92 1010.4
20260905215413 24 0 0.0 0.0 0.00 0.20 0.20 92 1010.4
20260905214513 24 0 0.0 0.0 0.00 0.20 0.20 92 1010.0
20260905213613 24 0 0.0 0.0 0.00 0.20 0.20 92 1009.9
20260905212734 24 0 0.0 0.0 0.00 0.20 0.20 92 1009.9
20260905211813 24 0 0.0 0.0 0.00 0.20 0.20 92 1009.8
20260905210913 24 0 0.0 0.0 0.00 0.20 0.20 91 1009.8
20260905210013 24 0 0.0 3.2 0.05 0.20 0.20 92 1009.7
20260905205413 24 0 0.0 3.2 0.20 0.20 0.20 91 1009.7
20260905204513 24 0 0.0 0.0 0.20 0.20 0.20 90 1009.3
20260905203613 25 0 0.0 3.2 0.20 0.20 0.20 90 1009.6
20260905202713 25 0 0.0 3.2 0.20 0.20 0.20 88 1009.7
20260905201813 25 0 0.0 3.2 0.20 0.20 0.20 87 1009.7
20260905200913 26 0 0.0 3.2 0.20 0.20 0.20 84 1009.6
20260905200013 27 77 4.8 16.1 0.15 0.15 0.15 77 1010.0
20260905195434 28 74 4.8 16.1 0.00 0.00 0.00 69 1011.1
20260905194513 28 67 4.8 16.1 0.00 0.00 0.00 68 1011.1
20260905193634 29 72 9.7 25.7 0.00 0.00 0.00 67 1010.6
20260905192713 30 70 14.5 45.1 0.00 0.00 0.00 63 1010.9
20260905191813 33 63 4.8 45.1 0.00 0.00 0.00 53 1010.3
20260905190912 36 0 0.0 3.2 0.00 0.00 0.00 50 1009.5
20260905190034 36 0 0.0 6.4 0.00 0.00 0.00 48 1009.4
20260905185434 37 0 0.0 12.9 0.00 0.00 0.00 48 1009.2
20260905184513 37 0 0.0 6.4 0.00 0.00 0.00 48 1009.2
20260905183634 37 237 4.8 12.9 0.00 0.00 0.00 46 1009.3
20260905182713 38 203 4.8 16.1 0.00 0.00 0.00 46 1009.4
20260905181813 38 236 4.8 16.1 0.00 0.00 0.00 47 1009.7
20260905180913 38 239 4.8 9.7 0.00 0.00 0.00 48 1009.8
20260905180013 37 239 4.8 16.1 0.00 0.00 0.00 48 1010.1
20260905175413 37 185 4.8 12.9 0.00 0.00 0.00 50 1010.2
20260905174512 37 223 4.8 9.7 0.00 0.00 0.00 48 1010.5
20260905173612 38 250 4.8 16.1 0.00 0.00 0.00 48 1010.8
20260905172713 37 231 4.8 9.7 0.00 0.00 0.00 48 1011.0
20260905171833 37 74 4.8 12.9 0.00 0.00 0.00 48 1011.0
20260905170913 37 0 0.0 9.7 0.00 0.00 0.00 51 1011.2
20260905170033 37 0 0.0 6.4 0.00 0.00 0.00 49 1011.4
20260905165413 37 0 0.0 6.4 0.00 0.00 0.00 49 1011.5
20260905164513 37 0 0.0 6.4 0.00 0.00 0.00 49 1011.6
20260905163612 36 0 0.0 9.7 0.00 0.00 0.00 52 1011.6
20260905162712 36 0 0.0 12.9 0.00 0.00 0.00 50 1011.7
20260905161813 36 0 0.0 6.4 0.00 0.00 0.00 54 1011.8
20260905160913 36 0 0.0 9.7 0.00 0.00 0.00 53 1012.0
20260905160013 36 0 0.0 6.4 0.00 0.00 0.00 55 1012.1
20260905155413 36 0 0.0 9.7 0.00 0.00 0.00 54 1012.2
20260905154512 35 0 0.0 9.7 0.00 0.00 0.00 57 1012.4
20260905153612 35 0 0.0 6.4 0.00 0.00 0.00 58 1012.5
20260905152713 34 0 0.0 6.4 0.00 0.00 0.00 58 1012.7
20260905151812 34 0 0.0 9.7 0.00 0.00 0.00 59 1012.7
20260905150913 33 0 0.0 6.4 0.00 0.00 0.00 62 1012.7
20260905150033 33 0 0.0 6.4 0.00 0.00 0.00 61 1012.6
20260905145434 33 225 4.8 9.7 0.00 0.00 0.00 64 1012.7
20260905144534 33 0 0.0 6.4 0.00 0.00 0.00 64 1012.8
20260905143633 32 0 0.0 6.4 0.00 0.00 0.00 64 1012.7
20260905142712 32 0 0.0 6.4 0.00 0.00 0.00 66 1012.7
20260905141812 31 0 0.0 3.2 0.00 0.00 0.00 67 1012.7
20260905140912 31 0 0.0 3.2 0.00 0.00 0.00 67 1012.6
20260905140012 31 0 0.0 3.2 0.00 0.00 0.00 69 1012.6
20260905135412 31 0 0.0 3.2 0.00 0.00 0.00 70 1012.5
20260905134512 30 0 0.0 3.2 0.00 0.00 0.00 70 1012.6
20260905133612 30 0 0.0 6.4 0.00 0.00 0.00 74 1012.6
20260905132712 29 0 0.0 3.2 0.00 0.00 0.00 76 1012.6
20260905131833 28 0 0.0 6.4 0.00 0.00 0.00 77 1012.6
20260905130933 28 0 0.0 3.2 0.00 0.00 0.00 79 1012.6
20260905130012 27 0 0.0 3.2 0.00 0.00 0.00 82 1012.6
20260905125412 27 0 0.0 0.0 0.00 0.00 0.00 82 1012.7